Date String (YYYY-MM-DD hh:mm:ss) UTC,Instrument flags,Ambient pressure (hPa),Sample flow (lpm),Bypass flow (lpm),Sample temperature (°C),Ambient temperature (°C),ASC tube jacket temperature (°C),LED temperature (°C),Box temperature (°C),Sample RH (%),Mass concentration (μg/m³),Mass concentration (μg/m³)
DateTimeUTC,F1_M11,P_M11,Q1_M11,Q2_M11,T1_M11,T2_M11,T3_M11,T4_M11,T5_M11,U1_M11,X0_M11,X2_M11
2021-08-12 15:00:00,FlowAlarm;OPCInstrumentWarning,0832.7,5.00,0.00,29.7,28.9,00.0,38.8,31.7,19.5,0039.47,0025.41
2021-08-12 15:01:00,FlowAlarm;OPCInstrumentWarning,0832.7,5.01,0.00,29.8,29.0,00.0,38.8,31.7,20.2,0038.61,0025.66
2021-08-12 15:02:00,FlowAlarm;OPCInstrumentWarning,0832.7,4.99,0.00,29.8,28.9,00.0,38.9,31.7,20.0,0039.56,0025.91
2021-08-12 15:03:00,FlowAlarm;OPCInstrumentWarning,0832.6,5.02,0.00,29.8,27.2,00.0,38.8,31.4,20.5,0041.00,0026.16
2021-08-12 15:04:00,FlowAlarm;OPCInstrumentWarning,0832.7,5.00,0.00,29.6,26.3,00.0,38.8,31.1,21.2,0039.11,0026.35
2021-08-12 15:05:00,FlowAlarm;OPCInstrumentWarning,0832.7,4.99,0.00,29.5,26.6,00.0,38.8,31.1,21.5,0037.49,0026.52
2021-08-12 15:06:00,FlowAlarm;OPCInstrumentWarning,0832.7,5.00,0.00,29.5,27.0,00.0,38.8,31.2,21.6,0037.53,0026.75
2021-08-12 15:07:00,FlowAlarm;OPCInstrumentWarning,0832.7,5.00,0.00,29.4,27.4,00.0,38.7,31.3,21.4,0038.22,0026.99
2021-08-12 15:08:00,FlowAlarm;OPCInstrumentWarning,0832.7,4.99,0.00,29.4,27.7,00.0,38.7,31.4,21.4,0038.71,0027.29
2021-08-12 15:09:00,FlowAlarm;OPCInstrumentWarning,0832.6,5.00,0.00,29.5,28.0,00.0,38.7,31.4,21.4,0038.59,0027.69
2021-08-12 15:10:00,FlowAlarm;OPCInstrumentWarning,0832.6,5.01,0.00,29.5,28.2,00.0,38.7,31.5,21.6,0038.97,0028.08
2021-08-12 15:11:00,FlowAlarm;OPCInstrumentWarning,0832.7,5.01,0.00,29.5,28.4,00.0,38.7,31.5,21.9,0039.36,0028.61
2021-08-12 15:12:00,FlowAlarm;OPCInstrumentWarning,0832.7,4.99,0.00,29.6,28.6,00.0,38.7,31.6,21.2,0040.42,0029.16
2021-08-12 15:13:00,FlowAlarm;OPCInstrumentWarning,0832.7,4.99,0.00,29.6,28.7,00.0,38.7,31.6,21.2,0040.11,0029.81
2021-08-12 15:14:00,FlowAlarm;OPCInstrumentWarning,0832.8,5.01,0.00,29.7,28.8,00.0,38.7,31.7,21.7,0039.13,0030.41
2021-08-12 15:15:00,FlowAlarm;OPCInstrumentWarning,0832.8,5.00,0.00,29.7,28.9,00.0,38.8,31.8,21.6,0039.52,0030.98
2021-08-12 15:16:00,FlowAlarm;OPCInstrumentWarning,0832.8,5.01,0.00,29.8,28.7,00.0,38.8,31.7,21.6,0039.87,0031.50
2021-08-12 15:17:00,FlowAlarm;OPCInstrumentWarning,0832.8,5.00,0.00,29.7,27.1,00.0,38.8,31.3,21.6,0039.78,0032.07
2021-08-12 15:18:00,FlowAlarm;OPCInstrumentWarning,0832.8,5.00,0.00,29.6,26.2,00.0,38.7,31.1,21.7,0039.74,0032.60
2021-08-12 15:19:00,FlowAlarm;OPCInstrumentWarning,0832.8,4.99,0.00,29.5,26.5,00.0,38.7,31.1,22.0,0039.81,0032.98
2021-08-12 15:20:00,FlowAlarm;OPCInstrumentWarning,0832.8,4.99,0.00,29.4,26.9,00.0,38.7,31.2,22.0,0040.22,0033.28
2021-08-12 15:21:00,FlowAlarm;OPCInstrumentWarning,0832.7,5.00,0.00,29.4,27.3,00.0,38.7,31.2,22.3,0042.31,0033.57
2021-08-12 15:22:00,FlowAlarm;OPCInstrumentWarning,0832.8,5.00,0.00,29.4,27.7,00.0,38.7,31.3,22.1,0042.72,0033.68
2021-08-12 15:23:00,FlowAlarm;OPCInstrumentWarning,0832.8,4.98,0.00,29.4,28.0,00.0,38.6,31.4,22.4,0042.68,0033.76
2021-08-12 15:24:00,FlowAlarm;OPCInstrumentWarning,0832.8,5.00,0.00,29.5,28.2,00.0,38.6,31.4,21.8,0042.43,0033.69
2021-08-12 15:25:00,FlowAlarm;OPCInstrumentWarning,0832.8,5.01,0.00,29.5,28.4,00.0,38.7,31.5,21.6,0043.26,0033.57
2021-08-12 15:26:00,FlowAlarm;OPCInstrumentWarning,0832.8,4.99,0.00,29.6,28.6,00.0,38.7,31.5,21.4,0043.41,0033.44
2021-08-12 15:27:00,FlowAlarm;OPCInstrumentWarning,0832.9,4.99,0.00,29.6,28.7,00.0,38.7,31.6,21.2,0044.26,0033.31
2021-08-12 15:28:00,FlowAlarm;OPCInstrumentWarning,0832.9,5.00,0.00,29.7,28.8,00.0,38.7,31.7,21.3,0044.39,0033.18
2021-08-12 15:29:00,FlowAlarm;OPCInstrumentWarning,0832.9,5.01,0.00,29.7,28.8,00.0,38.8,31.7,22.1,0044.62,0033.01
2021-08-12 15:30:00,FlowAlarm;OPCInstrumentWarning,0832.9,5.00,0.00,29.7,27.5,00.0,38.7,31.4,22.2,0045.60,0032.94
2021-08-12 15:31:00,FlowAlarm;OPCInstrumentWarning,0832.8,5.00,0.00,29.6,26.1,00.0,38.7,31.1,22.2,0045.63,0032.86
2021-08-12 15:32:00,FlowAlarm;OPCInstrumentWarning,0832.9,5.01,0.00,29.5,26.2,00.0,38.7,31.1,22.5,0043.77,0032.79
2021-08-12 15:33:00,FlowAlarm;OPCInstrumentWarning,0832.9,4.99,0.00,29.4,26.7,00.0,38.7,31.1,22.7,0043.69,0032.75
2021-08-12 15:34:00,FlowAlarm;OPCInstrumentWarning,0832.9,5.01,0.00,29.4,27.1,00.0,38.6,31.2,22.9,0044.22,0032.71
2021-08-12 15:35:00,FlowAlarm;OPCInstrumentWarning,0832.9,5.00,0.00,29.4,27.5,00.0,38.6,31.3,22.7,0044.57,0032.72
2021-08-12 15:36:00,FlowAlarm;OPCInstrumentWarning,0832.9,5.01,0.00,29.4,27.8,00.0,38.6,31.3,22.5,0044.78,0032.75
2021-08-12 15:37:00,FlowAlarm;OPCInstrumentWarning,0833.0,5.00,0.00,29.4,28.1,00.0,38.6,31.4,22.5,0045.05,0032.84
2021-08-12 15:38:00,FlowAlarm;OPCInstrumentWarning,0833.0,5.00,0.00,29.5,28.3,00.0,38.6,31.5,22.1,0045.31,0032.97
2021-08-12 15:39:00,FlowAlarm;OPCInstrumentWarning,0833.1,4.99,0.00,29.5,28.5,00.0,38.6,31.5,22.8,0046.29,0033.04
2021-08-12 15:40:00,FlowAlarm;OPCInstrumentWarning,0833.0,5.02,0.00,29.5,28.6,00.0,38.6,31.6,22.8,0046.43,0033.10
2021-08-12 15:41:00,FlowAlarm;OPCInstrumentWarning,0833.1,4.99,0.00,29.6,28.8,00.0,38.7,31.6,21.8,0045.94,0033.09
2021-08-12 15:42:00,FlowAlarm;OPCInstrumentWarning,0833.0,5.01,0.00,29.6,28.9,00.0,38.7,31.7,22.0,0045.33,0032.96
2021-08-12 15:43:00,FlowAlarm;OPCInstrumentWarning,0833.0,5.00,0.00,29.7,28.8,00.0,38.7,31.7,22.0,0044.93,0032.81
2021-08-12 15:44:00,FlowAlarm;OPCInstrumentWarning,0833.1,5.01,0.00,29.7,27.4,00.0,38.7,31.3,21.6,0045.20,0032.68
2021-08-12 15:45:00,FlowAlarm;OPCInstrumentWarning,0833.1,4.99,0.00,29.5,26.1,00.0,38.7,31.0,21.8,0044.13,0032.57
2021-08-12 15:46:00,FlowAlarm;OPCInstrumentWarning,0833.0,5.01,0.00,29.4,26.4,00.0,38.7,31.0,22.2,0043.99,0032.46
2021-08-12 15:47:00,FlowAlarm;OPCInstrumentWarning,0833.0,4.99,0.00,29.4,26.8,00.0,38.6,31.1,22.1,0043.95,0032.36
2021-08-12 15:48:00,FlowAlarm;OPCInstrumentWarning,0833.1,5.01,0.00,29.3,27.2,00.0,38.6,31.2,22.0,0045.25,0032.25
2021-08-12 15:49:00,FlowAlarm;OPCInstrumentWarning,0833.1,5.00,0.00,29.3,27.6,00.0,38.6,31.2,21.9,0045.02,0032.16
2021-08-12 15:50:00,FlowAlarm;OPCInstrumentWarning,0833.1,5.00,0.00,29.4,27.9,00.0,38.6,31.3,22.2,0044.53,0032.07
2021-08-12 15:51:00,FlowAlarm;OPCInstrumentWarning,0833.1,5.00,0.00,29.4,28.2,00.0,38.6,31.4,22.4,0044.12,0031.99
2021-08-12 15:52:00,FlowAlarm;OPCInstrumentWarning,0833.1,4.99,0.00,29.5,28.4,00.0,38.6,31.5,22.9,0043.44,0031.95
2021-08-12 15:53:00,FlowAlarm;OPCInstrumentWarning,0833.1,5.01,0.00,29.5,28.6,00.0,38.6,31.5,22.5,0043.42,0031.96
2021-08-12 15:54:00,FlowAlarm;OPCInstrumentWarning,0833.1,4.98,0.00,29.6,28.7,00.0,38.6,31.6,22.4,0043.46,0031.96
2021-08-12 15:55:00,FlowAlarm;OPCInstrumentWarning,0833.1,5.02,0.00,29.6,28.8,00.0,38.7,31.7,22.4,0043.19,0031.98
2021-08-12 15:56:00,FlowAlarm;OPCInstrumentWarning,0833.2,5.00,0.00,29.7,28.6,00.0,38.7,31.6,22.2,0043.35,0032.05
2021-08-12 15:57:00,FlowAlarm;OPCInstrumentWarning,0833.1,4.99,0.00,29.6,27.0,00.0,38.7,31.3,21.9,0042.86,0032.07
2021-08-12 15:58:00,FlowAlarm;OPCInstrumentWarning,0833.2,5.00,0.00,29.5,26.1,00.0,38.6,31.0,22.2,0041.68,0032.06
2021-08-12 15:59:00,FlowAlarm;OPCInstrumentWarning,0833.1,5.00,0.00,29.4,26.5,00.0,38.6,31.1,21.9,0040.05,0032.04
